Home   Weather   Pensacola   Past weeks
Flag for USA

Past Weather in Pensacola, Florida, USA — Yesterday and Last 2 Weeks

Now
81 °F

Clear.


Feels Like: 87 °F
Forecast: 83 / 73 °F
Wind: 6 mph from Southwest

Location: Pensacola Regional Airport

Current Time: Oct 15, 2019 at 6:47:55 pm

Latest Report: Oct 15, 2019 at 5:53 pm


Visibility: 10 mi

Pressure: 29.87 "Hg

Humidity: 85%

Dew Point: 76 °F

Location of PensacolaLocation

Past Weather in Pensacola — Graph

°F

Pensacola Temperature Yesterday

Maximum temperature yesterday: 86 °F (at 11:53 am)
Minimum temperature yesterday: 71 °F (at 5:53 am)
Average temperature yesterday: 76 °F

High & Low Weather Summary for the Past Weeks

 TemperatureHumidityPressure
High96 °F (Oct 3, 1:53 pm)100% (Oct 1, 2:53 am)30.09 "Hg (Oct 1, 2:53 am)
Low64 °F (Oct 13, 3:53 am)36% (Oct 1, 3:53 pm)29.85 "Hg (Oct 15, 4:53 pm)
Average80 °F78%30.00 "Hg
* Reported Sep 30 4:53 pm — Oct 15 4:53 pm, Pensacola. Weather by CustomWeather, © 2019

Note: Actual official high and low records may vary slightly from our data, if they occured in-between our weather recording intervals... More about our weather records

Advertising

Pensacola Weather History for the Previous 24 Hours

Scroll right to see more
 ConditionsComfort  
Time TempWeatherWind HumidityBarometerVisibility
4:53 pm
Tue, Oct 15
83 °FScattered clouds.10 mph85%29.85 "Hg10 mi
3:53 pm86 °FPassing clouds.12 mph72%29.88 "Hg10 mi
3:31 pm86 °FScattered clouds.13 mph75%29.89 "Hg10 mi
3:21 pm84 °FPartly sunny.10 mph80%29.89 "Hg10 mi
2:53 pm86 °FBroken clouds.13 mph75%29.90 "Hg10 mi
2:21 pm84 °FCloudy.10 mph80%29.90 "Hg10 mi
1:53 pm83 °FMostly cloudy.9 mph82%29.92 "Hg10 mi
12:53 pm84 °FBroken clouds.12 mph80%29.95 "Hg10 mi
12:36 pm85 °FBroken clouds.12 mph75%29.96 "Hg10 mi
12:00 pm82 °FMostly cloudy.8 mph85%29.98 "Hg10 mi
10:53 am79 °FSunny.5 mph97%30.00 "Hg10 mi
9:53 am77 °FPartly sunny.6 mph100%30.00 "Hg10 mi
9:38 am76 °FPartly sunny.7 mph100%30.00 "Hg10 mi
9:17 am76 °FScattered clouds.8 mph100%30.01 "Hg10 mi
8:53 am75 °FPartly sunny.5 mph100%30.01 "Hg10 mi
8:37 am75 °FPartly sunny.6 mph100%30.00 "Hg10 mi
8:22 am74 °FScattered clouds.6 mph100%30.00 "Hg10 mi
7:53 am74 °FScattered clouds.5 mph100%30.00 "Hg10 mi
6:53 am73 °FScattered clouds.6 mph100%30.01 "Hg10 mi
5:53 am74 °FScattered clouds.6 mph100%30.01 "Hg10 mi
4:53 am74 °FClear.3 mph100%30.01 "Hg10 mi
3:53 am74 °FPassing clouds.3 mph100%30.01 "Hg10 mi
2:53 am74 °FOvercast.3 mph100%30.02 "Hg10 mi
1:53 am74 °FOvercast.3 mph100%30.03 "Hg10 mi
12:53 am74 °FPartly cloudy.No wind100%30.04 "Hg10 mi
11:53 pm
Mon, Oct 14
74 °FPassing clouds.No wind100%30.06 "Hg10 mi
10:53 pm73 °FPartly cloudy.5 mph100%30.07 "Hg10 mi
9:53 pm74 °FRain. Fog.3 mph100%30.09 "Hg4 mi
9:20 pm74 °FLight rain. Mostly cloudy.5 mph100%30.08 "Hg7 mi
8:57 pm74 °FLight rain. Mostly cloudy.5 mph100%30.08 "Hg10 mi
7:53 pm75 °FLight rain. Mostly cloudy.3 mph100%30.06 "Hg10 mi
6:53 pm74 °FLight rain. Mostly cloudy.3 mph100%30.04 "Hg10 mi
Weather by CustomWeather, © 2019

See weather overview